Location: Koszewko
(53.2876°N, 14.9061°E)
Time: 23:20:39
(UTC+00:00)

Cosmos 2369 Rocket - Pass Details

Date: 03 March 2021
Orbit: 829 x 852 km, 71.0° (Epoch: 12 April)

Event Time Altitude Azimuth Distance (km) Brightness Sun altitude
Rises 17:58:50 0° 314° (NW) 3,383 6.2 -12.2°
Reaches altitude 10° 18:02:43 10° 341° (NNW) 2,448 4.9 -12.8°
Maximum altitude 18:05:24 13° 10° (N) 2,212 4.4 -13.2°
Drops below altitude 10° 18:08:05 10° 39° (NE) 2,448 4.3 -13.6°
Enters shadow 18:09:23 - 50° (NE) 2,706 4.4 -13.8°
